Flag for Norway Weather past 2 weeks in Finse, Norway

Now
44 °F

Quite cool.


Feels Like: 40 °F
Forecast: 38 / 46 °F
Wind: 7 mph from West

Location: Finsevatn

Current Time: Aug 28, 2015 at 7:47:05 PM

Latest Report: Aug 28, 2015 at 6:00 PM


Visibility: N/A

Pressure: 29.75 "Hg (25.63 "Hg at 1221m altitude)

Humidity: 83%

Dew point: 39 °F

Location of FinseLocation

Historic Weather in Finse — Graph

°F

Finse temperature yesterday

Maximum temperature yesterday: 52 °F (at 1:00 PM)
Minimum temperature yesterday: 43 °F (at 11:00 PM)
Average temperature yesterday: 48 °F

Past Weeks' High & Low Weather Summary

 TemperatureHumidityPressure
High60 °F (Aug 23, 6:00 PM)96% (Aug 16, 8:00 AM)30.38 "Hg (Aug 16, 8:00 AM)
Low40 °F (Aug 23, 7:00 AM)36% (Aug 14, 3:00 PM)29.44 "Hg (Aug 27, 1:00 PM)
Average50 °F76%30.01 "Hg
* Reported Aug 13 6:00 PM — Aug 28 6:00 PM, Finse, Weather by CustomWeather, © 2015

Note: Actual official high and low records may vary slightly from our data, if they occured in-between our weather recording intervals... More about our weather records

Advertising

Finse weather history for previous 24 hours

 ConditionsComfort  
Time TempWeatherWind HumidityBarometerVisibility
6:00 PM
Fri, Aug 28
44 °FQuite cool.7 mph83%29.75 "HgN/A
5:00 PM45 °FQuite cool.9 mph80%29.74 "HgN/A
4:00 PM44 °FQuite cool.10 mph83%29.74 "HgN/A
3:00 PM44 °FQuite cool.12 mph83%29.72 "HgN/A
2:00 PM43 °FQuite cool.9 mph86%29.72 "HgN/A
1:00 PM44 °FQuite cool.7 mph83%29.68 "HgN/A
12:00 PM44 °FQuite cool.8 mph83%29.66 "HgN/A
11:00 AM42 °FQuite cool.7 mph90%29.65 "HgN/A
10:00 AM42 °FQuite cool.6 mph90%29.63 "HgN/A
9:00 AM42 °FQuite cool.6 mph90%29.62 "HgN/A
8:00 AM42 °FQuite cool.1 mph84%29.60 "HgN/A
7:00 AM41 °FQuite cool.5 mph85%29.60 "HgN/A
5:00 AM42 °FQuite cool.5 mph84%29.58 "HgN/A
4:00 AM42 °FQuite cool.3 mph79%29.56 "HgN/A
3:00 AM42 °FQuite cool.5 mph78%29.56 "HgN/A
2:00 AM42 °FQuite cool.3 mph84%29.55 "HgN/A
1:00 AM42 °FQuite cool.5 mph88%29.55 "HgN/A
11:00 PM
Thu, Aug 27
43 °FQuite cool.2 mph80%29.53 "HgN/A
10:00 PM44 °FQuite cool.6 mph80%29.50 "HgN/A
9:00 PM45 °FQuite cool.3 mph83%29.50 "HgN/A
8:00 PM44 °FQuite cool.3 mph85%29.47 "HgN/A
7:00 PM45 °FCool.7 mph86%29.47 "HgN/A
Weather by CustomWeather, © 2015

See weather overviewHow to use our weather pages